Date String (YYYY-MM-DD hh:mm:ss) UTC,Instrument flags,Ambient pressure (hPa),Sample flow (lpm),Bypass flow (lpm),Sample temperature (°C),Ambient temperature (°C),ASC tube jacket temperature (°C),LED temperature (°C),Box temperature (°C),Sample RH (%),Span deviation,Mass concentration (μg/m³),Mass concentration (μg/m³),Mass concentration (μg/m³)
DateTimeUTC,F1_M11,P_M11,Q1_M11,Q2_M11,T1_M11,T2_M11,T3_M11,T4_M11,T5_M11,U1_M11,ZSPAN_M11,X0_M11,X2_M11,X1_M11
2021-12-02 19:00:00,,0827.2,4.99,0.00,30.1,27.4,00.0,39.2,31.6,08.8,0000.0,0012.62,0002.78,0001.02
2021-12-02 19:01:00,,0827.2,5.00,0.00,30.1,27.9,00.0,39.1,31.6,08.7,0000.0,0012.02,0002.63,0000.99
2021-12-02 19:02:00,,0827.2,5.00,0.00,30.1,28.2,00.0,39.1,31.7,08.6,0000.0,0011.51,0002.50,0000.97
2021-12-02 19:03:00,,0827.2,4.99,0.00,30.1,28.5,00.0,39.1,31.8,08.5,0000.0,0011.16,0002.40,0000.95
2021-12-02 19:04:00,,0827.2,5.01,0.00,30.1,28.8,00.0,39.1,31.9,08.4,0000.0,0010.45,0002.25,0000.91
2021-12-02 19:05:00,,0827.2,4.99,0.00,30.2,29.0,00.0,39.1,32.0,08.4,0000.0,0010.29,0002.21,0000.87
2021-12-02 19:06:00,,0827.2,5.01,0.00,30.2,29.1,00.0,39.1,32.0,08.3,0000.0,0009.99,0002.10,0000.86
2021-12-02 19:07:00,,0827.2,5.00,0.00,30.3,29.3,00.0,39.1,32.1,08.3,0000.0,0009.18,0002.03,0000.84
2021-12-02 19:08:00,,0827.2,4.99,0.00,30.3,29.4,00.0,39.2,32.1,08.4,0000.0,0008.63,0001.94,0000.84
2021-12-02 19:09:00,,0827.2,5.01,0.00,30.4,29.5,00.0,39.2,32.2,08.5,0000.0,0008.49,0001.95,0000.83
2021-12-02 19:10:00,,0827.2,5.01,0.00,30.4,29.6,00.0,39.2,32.2,08.4,0000.0,0008.62,0001.88,0000.81
2021-12-02 19:11:00,,0827.1,5.01,0.00,30.4,29.0,00.0,39.2,32.1,08.3,0000.0,0008.46,0001.90,0000.79
2021-12-02 19:12:00,,0827.1,4.99,0.00,30.3,26.8,00.0,39.2,31.5,08.0,0000.0,0008.68,0001.94,0000.77
2021-12-02 19:13:00,,0827.0,5.01,0.00,30.1,26.0,00.0,39.2,31.3,07.9,0000.0,0008.61,0001.96,0000.73
2021-12-02 19:14:00,,0827.1,4.99,0.00,30.0,26.3,00.0,39.1,31.3,07.9,0000.0,0008.51,0001.90,0000.69
2021-12-02 19:15:00,,0827.1,5.00,0.00,29.9,26.8,00.0,39.1,31.4,08.0,0000.0,0008.55,0001.93,0000.67
2021-12-02 19:16:00,,0827.4,5.01,0.00,29.9,27.3,00.0,39.0,31.5,08.0,0000.0,0008.11,0001.90,0000.64
2021-12-02 19:17:00,,0827.2,4.99,0.00,29.9,27.8,00.0,39.0,31.6,08.2,0000.0,0007.27,0001.87,0000.62
2021-12-02 19:18:00,,0827.1,5.01,0.00,30.0,28.2,00.0,39.0,31.7,08.2,0000.0,0007.40,0001.88,0000.61
2021-12-02 19:19:00,,0827.4,4.98,0.00,30.0,28.5,00.0,39.0,31.8,08.2,0000.0,0007.59,0001.91,0000.59
2021-12-02 19:20:00,,0827.4,5.00,0.00,30.0,28.7,00.0,39.0,31.8,08.2,0000.0,0007.42,0001.82,0000.56
2021-12-02 19:21:00,,0827.5,5.01,0.00,30.1,28.9,00.0,39.0,31.9,08.1,0000.0,0006.19,0001.78,0000.54
2021-12-02 19:22:00,,0827.3,4.99,0.00,30.1,29.1,00.0,39.0,32.0,08.0,0000.0,0005.67,0001.66,0000.52
2021-12-02 19:23:00,,0827.0,5.02,0.00,30.2,29.3,00.0,39.0,32.0,07.9,0000.0,0007.43,0001.60,0000.51
2021-12-02 19:24:00,,0827.0,4.98,0.00,30.2,29.4,00.0,39.1,32.1,07.9,0000.0,0007.90,0001.53,0000.51
2021-12-02 19:25:00,,0827.0,5.01,0.00,30.3,29.5,00.0,39.1,32.1,07.9,0000.0,0008.27,0001.57,0000.51
2021-12-02 19:26:00,,0827.0,5.00,0.00,30.3,28.8,00.0,39.1,32.0,07.8,0000.0,0008.92,0001.58,0000.52
2021-12-02 19:27:00,,0827.0,4.99,0.00,30.1,26.5,00.0,39.1,31.4,07.8,0000.0,0009.22,0001.63,0000.52
2021-12-02 19:28:00,,0826.9,5.01,0.00,30.0,25.9,00.0,39.0,31.1,07.9,0000.0,0009.55,0001.62,0000.51
2021-12-02 19:29:00,,0826.8,4.99,0.00,29.9,26.2,00.0,39.0,31.2,07.9,0000.0,0010.25,0001.58,0000.51
2021-12-02 19:30:00,,0826.9,5.00,0.00,29.8,26.7,00.0,38.9,31.3,08.0,0000.0,0010.12,0001.53,0000.50
2021-12-02 19:31:00,,0826.9,5.01,0.00,29.8,27.3,00.0,38.9,31.4,07.9,0000.0,0010.39,0001.47,0000.49
2021-12-02 19:32:00,,0827.2,4.98,0.00,29.8,27.7,00.0,38.9,31.5,07.9,0000.0,0010.76,0001.41,0000.48
2021-12-02 19:33:00,,0826.9,5.01,0.00,29.8,28.1,00.0,38.9,31.6,08.0,0000.0,0010.72,0001.40,0000.49
2021-12-02 19:34:00,,0827.2,4.99,0.00,29.9,28.4,00.0,38.9,31.7,07.9,0000.0,0009.83,0001.38,0000.49
2021-12-02 19:35:00,,0827.0,5.01,0.00,29.9,28.7,00.0,38.9,31.8,08.0,0000.0,0009.69,0001.39,0000.50
2021-12-02 19:36:00,,0826.9,5.01,0.00,30.0,28.9,00.0,38.9,31.9,08.2,0000.0,0009.31,0001.33,0000.50
2021-12-02 19:37:00,,0826.8,5.01,0.00,30.0,29.1,00.0,38.9,31.9,08.4,0000.0,0008.92,0001.31,0000.51
2021-12-02 19:38:00,,0826.8,4.99,0.00,30.1,29.2,00.0,38.9,32.0,08.4,0000.0,0009.72,0001.30,0000.52
2021-12-02 19:39:00,,0826.8,5.00,0.00,30.1,29.3,00.0,38.9,32.0,08.5,0000.0,0009.64,0001.35,0000.53
2021-12-02 19:40:00,,0826.8,5.00,0.00,30.2,29.5,00.0,39.0,32.1,08.5,0000.0,0009.40,0001.38,0000.53
2021-12-02 19:41:00,,0826.7,5.00,0.00,30.2,29.4,00.0,39.0,32.1,08.5,0000.0,0010.35,0001.47,0000.55
2021-12-02 19:42:00,,0826.7,5.01,0.00,30.2,27.6,00.0,39.0,31.7,08.5,0000.0,0010.30,0001.56,0000.58
2021-12-02 19:43:00,,0826.7,4.99,0.00,30.0,26.0,00.0,39.0,31.2,08.4,0000.0,0010.93,0001.60,0000.60
2021-12-02 19:44:00,,0826.7,4.99,0.00,29.9,26.1,00.0,38.9,31.2,08.4,0000.0,0010.80,0001.60,0000.60
2021-12-02 19:45:00,,0826.7,5.01,0.00,29.8,26.6,00.0,38.9,31.2,08.4,0000.0,0010.19,0001.63,0000.60
2021-12-02 19:46:00,,0826.7,4.98,0.00,29.8,27.1,00.0,38.8,31.3,08.3,0000.0,0009.83,0001.57,0000.61
2021-12-02 19:47:00,,0826.7,5.01,0.00,29.8,27.6,00.0,38.8,31.4,08.3,0000.0,0009.81,0001.58,0000.61
2021-12-02 19:48:00,,0826.7,4.98,0.00,29.8,28.0,00.0,38.8,31.5,08.3,0000.0,0010.53,0001.62,0000.61
2021-12-02 19:49:00,,0826.7,5.01,0.00,29.9,28.3,00.0,38.8,31.6,08.5,0000.0,0009.49,0001.60,0000.61
2021-12-02 19:50:00,,0826.7,5.00,0.00,29.9,28.6,00.0,38.8,31.7,08.4,0000.0,0010.05,0001.57,0000.61
2021-12-02 19:51:00,,0826.7,5.00,0.00,29.9,28.8,00.0,38.8,31.8,08.4,0000.0,0010.61,0001.55,0000.62
2021-12-02 19:52:00,,0826.6,5.00,0.00,30.0,29.0,00.0,38.8,31.9,08.4,0000.0,0009.52,0001.49,0000.61
2021-12-02 19:53:00,,0826.6,4.99,0.00,30.0,29.1,00.0,38.9,31.9,08.4,0000.0,0009.30,0001.45,0000.60
2021-12-02 19:54:00,,0826.6,5.01,0.00,30.1,29.3,00.0,38.9,32.0,08.4,0000.0,0008.94,0001.45,0000.60
2021-12-02 19:55:00,,0826.5,5.01,0.00,30.2,29.4,00.0,38.9,32.0,08.4,0000.0,0009.01,0001.42,0000.60
2021-12-02 19:56:00,,0826.6,5.00,0.00,30.2,29.2,00.0,38.9,32.0,08.4,0000.0,0009.29,0001.44,0000.60
2021-12-02 19:57:00,,0826.5,5.00,0.00,30.1,27.2,00.0,38.9,31.5,08.4,0000.0,0009.42,0001.47,0000.61
2021-12-02 19:58:00,,0826.5,5.00,0.00,29.9,25.7,00.0,38.9,31.0,08.5,0000.0,0009.61,0001.46,0000.62
2021-12-02 19:59:00,,0826.5,5.00,0.00,29.8,25.9,00.0,38.9,31.1,08.5,0000.0,0009.43,0001.45,0000.62
